User: anonymous   Login
Location: Unspecified
(0.0000°N, 0.0000°E)
Time: 07:16:03
(UTC+01:00)
Language:

Ariane H10 - Orbit

View from above orbital plane
View from above orbital plane
View from above satellite
View from above satellite

Ground track
Ground track

The orbit data is extracted from the following two-line orbital elements,

1 19122U 88040B   17080.41839285 -.00000250 +00000-0 -15037-2 0  9998
2 19122 006.8726 209.8715 7140137 065.3353 350.6658 02.33402766194893
Epoch (UTC): 21 March 2017 10:02:29
Eccentricity: 0.7140137
inclination: 6.8726°
perigee height: 487 km
apogee height: 34769 km
right ascension of ascending node: 209.8715°
argument of perigee: 65.3353°
revolutions per day: 2.33402766
mean anomaly at epoch: 350.6658°
orbit number at epoch: 19489

The dashed part of the orbit path shows where the satellite is in the earth's shadow,  

DLR